Time,TemperatureF,DewpointF,PressureIn,WindDirection,WindDirectionDegrees,WindSpeedMPH,WindSpeedGustMPH,Humidity,HourlyPrecipIn,Conditions,Clouds,dailyrainin,SoftwareType,DateUTC
2013-09-13 00:01:00,52.0,46.0,30.18,North,0,0.0,0.0,81,0.00,,,0.00,Meteo,2013-09-13 05:01:00,
2013-09-13 00:06:00,51.0,46.0,30.18,WNW,293,0.0,1.0,82,0.00,,,0.00,Meteo,2013-09-13 05:06:00,
2013-09-13 00:11:00,51.0,46.0,30.18,WNW,293,0.0,1.0,82,0.00,,,0.00,Meteo,2013-09-13 05:11:00,
2013-09-13 00:16:00,51.0,46.0,30.18,North,0,0.0,0.0,84,0.00,,,0.00,Meteo,2013-09-13 05:16:00,
2013-09-13 00:21:00,51.0,46.0,30.18,WNW,293,1.0,2.0,84,0.00,,,0.00,Meteo,2013-09-13 05:21:00,
2013-09-13 00:26:00,51.0,47.0,30.18,North,0,0.0,0.0,85,0.00,,,0.00,Meteo,2013-09-13 05:26:00,
2013-09-13 00:31:00,51.0,47.0,30.18,West,277,0.0,2.0,85,0.00,,,0.00,Meteo,2013-09-13 05:31:00,
2013-09-13 00:36:00,51.0,47.0,30.18,WNW,287,0.0,1.0,85,0.00,,,0.00,Meteo,2013-09-13 05:36:00,
2013-09-13 00:42:00,51.0,46.0,30.18,North,0,0.0,0.0,84,0.00,,,0.00,Meteo,2013-09-13 05:42:00,
2013-09-13 00:47:00,51.0,46.0,30.18,WNW,287,0.0,1.0,84,0.00,,,0.00,Meteo,2013-09-13 05:47:00,
2013-09-13 00:53:00,51.0,46.0,30.18,North,0,0.0,0.0,84,0.00,,,0.00,Meteo,2013-09-13 05:53:00,
2013-09-13 00:58:00,51.0,46.0,30.18,North,0,0.0,0.0,84,0.00,,,0.00,Meteo,2013-09-13 05:58:00,
2013-09-13 01:03:00,51.0,47.0,30.18,WNW,287,0.0,1.0,85,0.00,,,0.00,Meteo,2013-09-13 06:03:00,
2013-09-13 01:08:00,51.0,46.0,30.18,North,0,0.0,0.0,84,0.00,,,0.00,Meteo,2013-09-13 06:08:00,
2013-09-13 01:13:00,51.0,47.0,30.18,WNW,282,0.0,1.0,85,0.00,,,0.00,Meteo,2013-09-13 06:13:00,
2013-09-13 01:19:00,52.0,48.0,30.18,North,0,0.0,0.0,85,0.00,,,0.00,Meteo,2013-09-13 06:19:00,
2013-09-13 01:24:00,52.0,47.0,30.18,North,0,0.0,0.0,84,0.00,,,0.00,Meteo,2013-09-13 06:24:00,
2013-09-13 01:29:00,52.0,48.0,30.18,WNW,283,1.0,2.0,85,0.00,,,0.00,Meteo,2013-09-13 06:29:00,
2013-09-13 01:34:00,52.0,48.0,30.18,North,0,0.0,0.0,85,0.00,,,0.00,Meteo,2013-09-13 06:34:00,
2013-09-13 01:39:00,52.0,48.0,30.18,North,0,0.0,0.0,85,0.00,,,0.00,Meteo,2013-09-13 06:39:00,
2013-09-13 01:44:00,52.0,48.0,30.18,West,279,0.0,1.0,85,0.00,,,0.00,Meteo,2013-09-13 06:44:00,
2013-09-13 01:49:00,52.0,47.0,30.18,NW,316,1.0,2.0,84,0.00,,,0.00,Meteo,2013-09-13 06:49:00,
2013-09-13 01:54:00,52.0,47.0,30.18,NW,317,2.0,5.0,84,0.00,,,0.00,Meteo,2013-09-13 06:54:00,
2013-09-13 01:59:00,53.0,48.0,30.18,NW,311,0.0,1.0,83,0.00,,,0.00,Meteo,2013-09-13 06:59:00,
2013-09-13 02:05:00,52.0,47.0,30.18,NW,312,1.0,2.0,82,0.00,,,0.00,Meteo,2013-09-13 07:05:00,
2013-09-13 02:10:00,52.0,47.0,30.18,North,0,0.0,0.0,82,0.00,,,0.00,Meteo,2013-09-13 07:10:00,
2013-09-13 02:15:00,52.0,47.0,30.18,North,0,0.0,0.0,83,0.00,,,0.00,Meteo,2013-09-13 07:15:00,
2013-09-13 02:20:00,51.0,46.0,30.18,WSW,238,0.0,2.0,83,0.00,,,0.00,Meteo,2013-09-13 07:20:00,
2013-09-13 02:25:00,51.0,47.0,30.18,NW,322,1.0,3.0,85,0.00,,,0.00,Meteo,2013-09-13 07:25:00,
2013-09-13 02:30:00,51.0,46.0,30.18,North,0,0.0,0.0,84,0.00,,,0.00,Meteo,2013-09-13 07:30:00,
2013-09-13 02:35:00,51.0,46.0,30.18,NW,320,1.0,2.0,83,0.00,,,0.00,Meteo,2013-09-13 07:35:00,
2013-09-13 02:40:00,51.0,46.0,30.18,WNW,302,2.0,4.0,83,0.00,,,0.00,Meteo,2013-09-13 07:40:00,
2013-09-13 02:45:00,51.0,46.0,30.18,North,0,0.0,0.0,84,0.00,,,0.00,Meteo,2013-09-13 07:45:00,
2013-09-13 02:50:00,50.0,46.0,30.18,NNW,335,0.0,1.0,86,0.00,,,0.00,Meteo,2013-09-13 07:50:00,
2013-09-13 02:55:00,50.0,46.0,30.18,North,0,0.0,0.0,86,0.00,,,0.00,Meteo,2013-09-13 07:55:00,
2013-09-13 03:00:00,50.0,46.0,30.18,North,0,0.0,0.0,86,0.00,,,0.00,Meteo,2013-09-13 08:00:00,
2013-09-13 03:05:00,50.0,46.0,30.18,North,0,0.0,0.0,85,0.00,,,0.00,Meteo,2013-09-13 08:05:00,
2013-09-13 03:10:00,49.0,45.0,30.18,North,0,0.0,0.0,85,0.00,,,0.00,Meteo,2013-09-13 08:10:00,
2013-09-13 03:15:00,49.0,45.0,30.18,North,0,0.0,0.0,86,0.00,,,0.00,Meteo,2013-09-13 08:15:00,
2013-09-13 03:20:00,48.0,44.0,30.18,North,0,0.0,0.0,87,0.00,,,0.00,Meteo,2013-09-13 08:20:00,
2013-09-13 03:25:00,48.0,44.0,30.18,North,0,0.0,0.0,87,0.00,,,0.00,Meteo,2013-09-13 08:25:00,
2013-09-13 03:30:00,48.0,45.0,30.18,North,0,0.0,0.0,88,0.00,,,0.00,Meteo,2013-09-13 08:30:00,
2013-09-13 03:35:00,48.0,45.0,30.18,North,0,0.0,0.0,88,0.00,,,0.00,Meteo,2013-09-13 08:35:00,
2013-09-13 03:41:00,47.0,44.0,30.18,North,0,0.0,0.0,89,0.00,,,0.00,Meteo,2013-09-13 08:41:00,
2013-09-13 03:46:00,47.0,44.0,30.19,North,0,0.0,0.0,89,0.00,,,0.00,Meteo,2013-09-13 08:46:00,
2013-09-13 03:51:00,47.0,44.0,30.19,East,89,0.0,1.0,90,0.00,,,0.00,Meteo,2013-09-13 08:51:00,
2013-09-13 03:56:00,47.0,44.0,30.19,North,0,0.0,0.0,90,0.00,,,0.00,Meteo,2013-09-13 08:56:00,
2013-09-13 04:01:00,47.0,44.0,30.19,North,0,0.0,0.0,90,0.00,,,0.00,Meteo,2013-09-13 09:01:00,
2013-09-13 04:07:00,47.0,45.0,30.19,East,89,0.0,1.0,91,0.00,,,0.00,Meteo,2013-09-13 09:07:00,
2013-09-13 04:12:00,47.0,45.0,30.19,North,0,0.0,0.0,91,0.00,,,0.00,Meteo,2013-09-13 09:12:00,
2013-09-13 04:17:00,47.0,45.0,30.19,North,0,0.0,0.0,92,0.00,,,0.00,Meteo,2013-09-13 09:17:00,
2013-09-13 04:22:00,47.0,45.0,30.19,North,0,0.0,0.0,92,0.00,,,0.00,Meteo,2013-09-13 09:22:00,
2013-09-13 04:28:00,47.0,45.0,30.19,North,0,0.0,0.0,92,0.00,,,0.00,Meteo,2013-09-13 09:28:00,
2013-09-13 04:33:00,46.0,44.0,30.19,North,0,0.0,0.0,92,0.00,,,0.00,Meteo,2013-09-13 09:33:00,
2013-09-13 04:38:00,46.0,44.0,30.19,North,0,0.0,0.0,92,0.00,,,0.00,Meteo,2013-09-13 09:38:00,
2013-09-13 04:43:00,46.0,44.0,30.19,North,0,0.0,0.0,92,0.00,,,0.00,Meteo,2013-09-13 09:43:00,
2013-09-13 04:48:00,46.0,44.0,30.19,North,0,0.0,0.0,92,0.00,,,0.00,Meteo,2013-09-13 09:48:00,
2013-09-13 04:53:00,46.0,44.0,30.19,North,0,0.0,0.0,93,0.00,,,0.00,Meteo,2013-09-13 09:53:00,
2013-09-13 04:58:00,46.0,44.0,30.19,North,0,0.0,0.0,93,0.00,,,0.00,Meteo,2013-09-13 09:58:00,
2013-09-13 05:03:00,46.0,44.0,30.19,North,0,0.0,0.0,93,0.00,,,0.00,Meteo,2013-09-13 10:03:00,
2013-09-13 05:08:00,46.0,44.0,30.19,North,0,0.0,0.0,93,0.00,,,0.00,Meteo,2013-09-13 10:08:00,
2013-09-13 05:13:00,46.0,44.0,30.20,North,0,0.0,0.0,93,0.00,,,0.00,Meteo,2013-09-13 10:13:00,
2013-09-13 05:18:00,46.0,44.0,30.20,North,0,0.0,0.0,93,0.00,,,0.00,Meteo,2013-09-13 10:18:00,
2013-09-13 05:23:00,46.0,44.0,30.20,North,0,0.0,0.0,93,0.00,,,0.00,Meteo,2013-09-13 10:23:00,
2013-09-13 05:28:00,46.0,44.0,30.20,North,0,0.0,0.0,92,0.00,,,0.00,Meteo,2013-09-13 10:28:00,
2013-09-13 05:33:00,46.0,44.0,30.20,North,0,0.0,0.0,92,0.00,,,0.00,Meteo,2013-09-13 10:33:00,
2013-09-13 05:38:00,46.0,44.0,30.20,North,0,0.0,0.0,92,0.00,,,0.00,Meteo,2013-09-13 10:38:00,
2013-09-13 05:43:00,45.0,43.0,30.20,North,0,0.0,0.0,92,0.00,,,0.00,Meteo,2013-09-13 10:43:00,
2013-09-13 05:48:00,45.0,43.0,30.20,North,0,0.0,0.0,92,0.00,,,0.00,Meteo,2013-09-13 10:48:00,
2013-09-13 05:53:00,45.0,43.0,30.20,North,0,0.0,0.0,93,0.00,,,0.00,Meteo,2013-09-13 10:53:00,
2013-09-13 05:58:00,45.0,43.0,30.20,North,0,0.0,0.0,92,0.00,,,0.00,Meteo,2013-09-13 10:58:00,
2013-09-13 06:03:00,45.0,43.0,30.20,North,0,0.0,0.0,92,0.00,,,0.00,Meteo,2013-09-13 11:03:00,
2013-09-13 06:08:00,44.0,42.0,30.20,North,0,0.0,0.0,92,0.00,,,0.00,Meteo,2013-09-13 11:08:00,
2013-09-13 06:13:00,44.0,42.0,30.20,North,0,0.0,0.0,92,0.00,,,0.00,Meteo,2013-09-13 11:13:00,
2013-09-13 06:18:00,44.0,42.0,30.20,North,0,0.0,0.0,92,0.00,,,0.00,Meteo,2013-09-13 11:18:00,
2013-09-13 06:23:00,44.0,42.0,30.20,North,0,0.0,0.0,92,0.00,,,0.00,Meteo,2013-09-13 11:23:00,
2013-09-13 06:28:00,44.0,42.0,30.20,North,0,0.0,0.0,92,0.00,,,0.00,Meteo,2013-09-13 11:28:00,
2013-09-13 06:33:00,44.0,42.0,30.20,North,0,0.0,0.0,93,0.00,,,0.00,Meteo,2013-09-13 11:33:00,
2013-09-13 06:38:00,44.0,42.0,30.20,North,0,0.0,0.0,93,0.00,,,0.00,Meteo,2013-09-13 11:38:00,
2013-09-13 06:43:00,43.0,41.0,30.20,North,0,0.0,0.0,93,0.00,,,0.00,Meteo,2013-09-13 11:43:00,
2013-09-13 06:48:00,43.0,41.0,30.20,North,0,0.0,0.0,93,0.00,,,0.00,Meteo,2013-09-13 11:48:00,
2013-09-13 06:53:00,43.0,41.0,30.21,North,0,0.0,0.0,93,0.00,,,0.00,Meteo,2013-09-13 11:53:00,
2013-09-13 06:58:00,43.0,41.0,30.21,North,0,0.0,0.0,93,0.00,,,0.00,Meteo,2013-09-13 11:58:00,
2013-09-13 07:03:00,43.0,41.0,30.21,North,0,0.0,0.0,93,0.00,,,0.00,Meteo,2013-09-13 12:03:00,
2013-09-13 07:08:00,43.0,41.0,30.21,North,0,0.0,0.0,94,0.00,,,0.00,Meteo,2013-09-13 12:08:00,
2013-09-13 07:13:00,43.0,41.0,30.21,North,0,0.0,0.0,94,0.00,,,0.00,Meteo,2013-09-13 12:13:00,
2013-09-13 07:18:00,43.0,41.0,30.21,North,0,0.0,0.0,94,0.00,,,0.00,Meteo,2013-09-13 12:18:00,
2013-09-13 07:23:00,44.0,42.0,30.21,North,0,0.0,0.0,94,0.00,,,0.00,Meteo,2013-09-13 12:23:00,
2013-09-13 07:28:00,44.0,42.0,30.21,North,0,0.0,0.0,94,0.00,,,0.00,Meteo,2013-09-13 12:28:00,
2013-09-13 07:34:00,44.0,43.0,30.21,North,0,0.0,0.0,95,0.00,,,0.00,Meteo,2013-09-13 12:34:00,
2013-09-13 07:39:00,45.0,44.0,30.21,North,0,0.0,0.0,95,0.00,,,0.00,Meteo,2013-09-13 12:39:00,
2013-09-13 07:44:00,46.0,45.0,30.21,East,89,0.0,1.0,95,0.00,,,0.00,Meteo,2013-09-13 12:44:00,
2013-09-13 07:49:00,47.0,46.0,30.21,North,0,0.0,0.0,95,0.00,,,0.00,Meteo,2013-09-13 12:49:00,
2013-09-13 07:54:00,48.0,46.0,30.21,North,0,0.0,0.0,94,0.00,,,0.00,Meteo,2013-09-13 12:54:00,
2013-09-13 07:59:00,48.0,46.0,30.21,SSW,193,0.0,2.0,93,0.00,,,0.00,Meteo,2013-09-13 12:59:00,
2013-09-13 08:04:00,49.0,46.0,30.21,SW,233,0.0,1.0,91,0.00,,,0.00,Meteo,2013-09-13 13:04:00,
2013-09-13 08:09:00,50.0,47.0,30.21,SW,233,0.0,1.0,89,0.00,,,0.00,Meteo,2013-09-13 13:09:00,
2013-09-13 08:14:00,50.0,47.0,30.21,North,0,0.0,0.0,88,0.00,,,0.00,Meteo,2013-09-13 13:14:00,
2013-09-13 08:20:00,50.0,46.0,30.20,SW,216,1.0,4.0,87,0.00,,,0.00,Meteo,2013-09-13 13:20:00,
2013-09-13 08:25:00,50.0,46.0,30.20,SW,232,0.0,1.0,87,0.00,,,0.00,Meteo,2013-09-13 13:25:00,
2013-09-13 08:30:00,51.0,47.0,30.20,North,0,0.0,0.0,87,0.00,,,0.00,Meteo,2013-09-13 13:30:00,
2013-09-13 08:35:00,51.0,47.0,30.20,SW,230,1.0,2.0,86,0.00,,,0.00,Meteo,2013-09-13 13:35:00,
2013-09-13 08:40:00,52.0,48.0,30.21,North,0,0.0,0.0,85,0.00,,,0.00,Meteo,2013-09-13 13:40:00,
2013-09-13 08:46:00,53.0,48.0,30.21,North,0,0.0,0.0,84,0.00,,,0.00,Meteo,2013-09-13 13:46:00,
2013-09-13 08:51:00,53.0,48.0,30.21,North,0,0.0,0.0,82,0.00,,,0.00,Meteo,2013-09-13 13:51:00,
2013-09-13 08:56:00,54.0,48.0,30.21,SW,230,0.0,1.0,81,0.00,,,0.00,Meteo,2013-09-13 13:56:00,
2013-09-13 09:01:00,55.0,49.0,30.21,North,0,0.0,0.0,80,0.00,,,0.00,Meteo,2013-09-13 14:01:00,
2013-09-13 09:06:00,55.0,49.0,30.21,SE,127,0.0,1.0,79,0.00,,,0.00,Meteo,2013-09-13 14:06:00,
2013-09-13 09:11:00,56.0,50.0,30.21,North,0,0.0,0.0,79,0.00,,,0.00,Meteo,2013-09-13 14:11:00,
2013-09-13 09:16:00,56.0,49.0,30.21,SE,127,0.0,1.0,78,0.00,,,0.00,Meteo,2013-09-13 14:16:00,
2013-09-13 09:21:00,57.0,50.0,30.21,SE,127,0.0,1.0,76,0.00,,,0.00,Meteo,2013-09-13 14:21:00,
2013-09-13 09:26:00,57.0,50.0,30.21,North,0,0.0,0.0,77,0.00,,,0.00,Meteo,2013-09-13 14:26:00,
2013-09-13 09:31:00,58.0,50.0,30.22,SSE,152,1.0,3.0,76,0.00,,,0.00,Meteo,2013-09-13 14:31:00,
2013-09-13 09:36:00,58.0,49.0,30.22,SE,141,0.0,2.0,73,0.00,,,0.00,Meteo,2013-09-13 14:36:00,
2013-09-13 09:41:00,58.0,50.0,30.22,SE,137,0.0,2.0,74,0.00,,,0.00,Meteo,2013-09-13 14:41:00,
2013-09-13 09:46:00,59.0,50.0,30.22,North,0,0.0,0.0,72,0.00,,,0.00,Meteo,2013-09-13 14:46:00,
2013-09-13 09:51:00,59.0,50.0,30.22,South,170,1.0,2.0,71,0.00,,,0.00,Meteo,2013-09-13 14:51:00,
2013-09-13 09:56:00,59.0,49.0,30.22,North,0,0.0,0.0,70,0.00,,,0.00,Meteo,2013-09-13 14:56:00,
2013-09-13 10:01:00,59.0,49.0,30.22,East,100,1.0,2.0,69,0.00,,,0.00,Meteo,2013-09-13 15:01:00,
2013-09-13 10:06:00,59.0,48.0,30.22,North,11,0.0,1.0,66,0.00,,,0.00,Meteo,2013-09-13 15:06:00,
2013-09-13 10:11:00,59.0,47.0,30.22,North,0,0.0,0.0,65,0.00,,,0.00,Meteo,2013-09-13 15:11:00,
2013-09-13 10:16:00,59.0,48.0,30.22,SSE,159,0.0,1.0,67,0.00,,,0.00,Meteo,2013-09-13 15:16:00,
2013-09-13 10:21:00,60.0,49.0,30.22,East,80,0.0,2.0,67,0.00,,,0.00,Meteo,2013-09-13 15:21:00,
2013-09-13 10:26:00,59.0,46.0,30.22,NW,325,3.0,6.0,62,0.00,,,0.00,Meteo,2013-09-13 15:26:00,
2013-09-13 10:31:00,58.0,46.0,30.22,NNW,332,2.0,3.0,64,0.00,,,0.00,Meteo,2013-09-13 15:31:00,
2013-09-13 10:36:00,58.0,46.0,30.22,NNW,346,0.0,1.0,64,0.00,,,0.00,Meteo,2013-09-13 15:36:00,
2013-09-13 10:41:00,57.0,46.0,30.22,North,0,0.0,0.0,67,0.00,,,0.00,Meteo,2013-09-13 15:41:00,
2013-09-13 10:46:00,58.0,46.0,30.22,NNW,340,1.0,2.0,65,0.00,,,0.00,Meteo,2013-09-13 15:46:00,
2013-09-13 10:51:00,58.0,46.0,30.22,East,79,1.0,2.0,64,0.00,,,0.00,Meteo,2013-09-13 15:51:00,
2013-09-13 10:56:00,59.0,46.0,30.22,NNW,345,2.0,4.0,63,0.00,,,0.00,Meteo,2013-09-13 15:56:00,
2013-09-13 11:01:00,59.0,46.0,30.22,NNW,342,0.0,1.0,63,0.00,,,0.00,Meteo,2013-09-13 16:01:00,
2013-09-13 11:06:00,60.0,47.0,30.22,ENE,69,3.0,5.0,63,0.00,,,0.00,Meteo,2013-09-13 16:06:00,
2013-09-13 11:11:00,61.0,48.0,30.21,East,83,1.0,2.0,62,0.00,,,0.00,Meteo,2013-09-13 16:11:00,
2013-09-13 11:16:00,61.0,47.0,30.22,East,96,0.0,1.0,59,0.00,,,0.00,Meteo,2013-09-13 16:16:00,
2013-09-13 11:21:00,61.0,47.0,30.22,WNW,301,2.0,3.0,59,0.00,,,0.00,Meteo,2013-09-13 16:21:00,
2013-09-13 11:26:00,61.0,47.0,30.22,NNW,333,1.0,3.0,60,0.00,,,0.00,Meteo,2013-09-13 16:26:00,
2013-09-13 11:31:00,61.0,48.0,30.22,ENE,70,1.0,3.0,62,0.00,,,0.00,Meteo,2013-09-13 16:31:00,
2013-09-13 11:36:00,62.0,48.0,30.22,ENE,70,0.0,1.0,60,0.00,,,0.00,Meteo,2013-09-13 16:36:00,
2013-09-13 11:41:00,61.0,47.0,30.22,NNW,327,2.0,4.0,59,0.00,,,0.00,Meteo,2013-09-13 16:41:00,
2013-09-13 11:46:00,60.0,46.0,30.21,NNW,331,0.0,1.0,60,0.00,,,0.00,Meteo,2013-09-13 16:46:00,
2013-09-13 11:51:00,60.0,47.0,30.21,NNE,28,1.0,2.0,62,0.00,,,0.00,Meteo,2013-09-13 16:51:00,
2013-09-13 11:56:00,59.0,46.0,30.21,North,0,0.0,0.0,62,0.00,,,0.00,Meteo,2013-09-13 16:56:00,
2013-09-13 12:01:00,60.0,48.0,30.21,NNW,331,1.0,2.0,64,0.00,,,0.00,Meteo,2013-09-13 17:01:00,
2013-09-13 12:06:00,60.0,47.0,30.21,ENE,71,3.0,4.0,63,0.00,,,0.00,Meteo,2013-09-13 17:06:00,
2013-09-13 12:11:00,61.0,48.0,30.20,ENE,78,3.0,4.0,62,0.00,,,0.00,Meteo,2013-09-13 17:11:00,
2013-09-13 12:16:00,62.0,47.0,30.20,NE,44,2.0,2.0,57,0.00,,,0.00,Meteo,2013-09-13 17:16:00,
2013-09-13 12:21:00,62.0,48.0,30.20,East,91,2.0,4.0,60,0.00,,,0.00,Meteo,2013-09-13 17:21:00,
2013-09-13 12:26:00,63.0,48.0,30.20,ESE,107,1.0,2.0,59,0.00,,,0.00,Meteo,2013-09-13 17:26:00,
2013-09-13 12:31:00,64.0,49.0,30.20,East,99,3.0,6.0,58,0.00,,,0.00,Meteo,2013-09-13 17:31:00,
2013-09-13 12:36:00,64.0,48.0,30.19,SSE,147,1.0,2.0,57,0.00,,,0.00,Meteo,2013-09-13 17:36:00,
2013-09-13 12:41:00,65.0,49.0,30.19,SE,132,1.0,2.0,56,0.00,,,0.00,Meteo,2013-09-13 17:41:00,
2013-09-13 12:46:00,65.0,48.0,30.19,SSE,156,0.0,1.0,55,0.00,,,0.00,Meteo,2013-09-13 17:46:00,
2013-09-13 12:51:00,65.0,48.0,30.19,ENE,61,0.0,1.0,54,0.00,,,0.00,Meteo,2013-09-13 17:51:00,
2013-09-13 12:56:00,64.0,47.0,30.19,NE,46,2.0,3.0,54,0.00,,,0.00,Meteo,2013-09-13 17:56:00,
2013-09-13 13:01:00,64.0,47.0,30.19,NNW,346,0.0,1.0,54,0.00,,,0.00,Meteo,2013-09-13 18:01:00,
2013-09-13 13:06:00,63.0,47.0,30.19,NW,326,3.0,4.0,55,0.00,,,0.00,Meteo,2013-09-13 18:06:00,
2013-09-13 13:11:00,62.0,47.0,30.19,NNW,339,3.0,4.0,57,0.00,,,0.00,Meteo,2013-09-13 18:11:00,
2013-09-13 13:16:00,62.0,47.0,30.18,NW,323,2.0,4.0,57,0.00,,,0.00,Meteo,2013-09-13 18:16:00,
2013-09-13 13:21:00,62.0,47.0,30.18,NNW,344,1.0,3.0,57,0.00,,,0.00,Meteo,2013-09-13 18:21:00,
2013-09-13 13:26:00,63.0,47.0,30.18,ENE,59,1.0,3.0,56,0.00,,,0.00,Meteo,2013-09-13 18:26:00,
2013-09-13 13:31:00,64.0,48.0,30.18,NNW,340,1.0,2.0,56,0.00,,,0.00,Meteo,2013-09-13 18:31:00,
2013-09-13 13:36:00,64.0,48.0,30.18,NNE,32,2.0,3.0,55,0.00,,,0.00,Meteo,2013-09-13 18:36:00,
2013-09-13 13:41:00,64.0,46.0,30.17,ENE,74,0.0,1.0,51,0.00,,,0.00,Meteo,2013-09-13 18:41:00,
2013-09-13 13:46:00,65.0,46.0,30.17,SE,140,0.0,1.0,51,0.00,,,0.00,Meteo,2013-09-13 18:46:00,
2013-09-13 13:51:00,65.0,46.0,30.17,North,353,1.0,3.0,51,0.00,,,0.00,Meteo,2013-09-13 18:51:00,
2013-09-13 13:56:00,64.0,46.0,30.17,NNW,345,1.0,3.0,52,0.00,,,0.00,Meteo,2013-09-13 18:56:00,
2013-09-13 14:01:00,63.0,46.0,30.17,NNW,342,3.0,5.0,53,0.00,,,0.00,Meteo,2013-09-13 19:01:00,
2013-09-13 14:06:00,62.0,46.0,30.17,NW,319,2.0,4.0,55,0.00,,,0.00,Meteo,2013-09-13 19:06:00,
2013-09-13 14:11:00,62.0,45.0,30.16,WNW,286,1.0,3.0,54,0.00,,,0.00,Meteo,2013-09-13 19:11:00,
2013-09-13 14:16:00,62.0,45.0,30.16,West,274,1.0,3.0,53,0.00,,,0.00,Meteo,2013-09-13 19:16:00,
2013-09-13 14:21:00,63.0,46.0,30.16,West,272,0.0,2.0,53,0.00,,,0.00,Meteo,2013-09-13 19:21:00,
2013-09-13 14:26:00,64.0,47.0,30.16,NW,306,1.0,3.0,53,0.00,,,0.00,Meteo,2013-09-13 19:26:00,
2013-09-13 14:31:00,65.0,46.0,30.15,NNW,338,2.0,3.0,51,0.00,,,0.00,Meteo,2013-09-13 19:31:00,
2013-09-13 14:36:00,65.0,45.0,30.15,WNW,295,2.0,3.0,48,0.00,,,0.00,Meteo,2013-09-13 19:36:00,
2013-09-13 14:41:00,65.0,45.0,30.15,NNW,344,1.0,2.0,48,0.00,,,0.00,Meteo,2013-09-13 19:41:00,
2013-09-13 14:46:00,65.0,45.0,30.15,NE,51,1.0,2.0,48,0.00,,,0.00,Meteo,2013-09-13 19:46:00,
2013-09-13 14:51:00,65.0,45.0,30.15,NNW,332,2.0,4.0,48,0.00,,,0.00,Meteo,2013-09-13 19:51:00,
2013-09-13 14:56:00,65.0,44.0,30.15,North,350,2.0,4.0,46,0.00,,,0.00,Meteo,2013-09-13 19:56:00,
2013-09-13 15:02:00,65.0,43.0,30.14,NW,315,2.0,4.0,44,0.00,,,0.00,Meteo,2013-09-13 20:02:00,
2013-09-13 15:07:00,65.0,43.0,30.14,NNE,27,2.0,3.0,45,0.00,,,0.00,Meteo,2013-09-13 20:07:00,
2013-09-13 15:12:00,65.0,44.0,30.14,NW,317,1.0,3.0,46,0.00,,,0.00,Meteo,2013-09-13 20:12:00,
2013-09-13 15:17:00,65.0,43.0,30.14,SW,232,1.0,3.0,44,0.00,,,0.00,Meteo,2013-09-13 20:17:00,
2013-09-13 15:22:00,65.0,43.0,30.14,NNW,334,0.0,2.0,45,0.00,,,0.00,Meteo,2013-09-13 20:22:00,
2013-09-13 15:27:00,66.0,45.0,30.14,NW,310,1.0,3.0,46,0.00,,,0.00,Meteo,2013-09-13 20:27:00,
2013-09-13 15:32:00,66.0,44.0,30.14,NE,55,1.0,3.0,45,0.00,,,0.00,Meteo,2013-09-13 20:32:00,
2013-09-13 15:37:00,66.0,44.0,30.14,NNW,330,3.0,6.0,45,0.00,,,0.00,Meteo,2013-09-13 20:37:00,
2013-09-13 15:42:00,65.0,44.0,30.13,NW,309,3.0,5.0,46,0.00,,,0.00,Meteo,2013-09-13 20:42:00,
2013-09-13 15:47:00,65.0,43.0,30.13,NNW,330,4.0,6.0,45,0.00,,,0.00,Meteo,2013-09-13 20:47:00,
2013-09-13 15:52:00,65.0,43.0,30.13,NNW,329,1.0,2.0,44,0.00,,,0.00,Meteo,2013-09-13 20:52:00,
2013-09-13 15:57:00,65.0,43.0,30.13,North,356,0.0,1.0,45,0.00,,,0.00,Meteo,2013-09-13 20:57:00,
2013-09-13 16:02:00,65.0,43.0,30.13,NW,320,3.0,4.0,44,0.00,,,0.00,Meteo,2013-09-13 21:02:00,
2013-09-13 16:07:00,65.0,44.0,30.13,NE,37,0.0,1.0,46,0.00,,,0.00,Meteo,2013-09-13 21:07:00,
2013-09-13 16:12:00,65.0,43.0,30.13,NW,312,1.0,3.0,44,0.00,,,0.00,Meteo,2013-09-13 21:12:00,
2013-09-13 16:17:00,66.0,44.0,30.12,East,86,3.0,4.0,45,0.00,,,0.00,Meteo,2013-09-13 21:17:00,
2013-09-13 16:22:00,66.0,43.0,30.12,North,8,1.0,2.0,43,0.00,,,0.00,Meteo,2013-09-13 21:22:00,
2013-09-13 16:28:00,66.0,43.0,30.12,ENE,68,2.0,4.0,43,0.00,,,0.00,Meteo,2013-09-13 21:28:00,
2013-09-13 16:33:00,67.0,46.0,30.12,East,84,4.0,5.0,46,0.00,,,0.00,Meteo,2013-09-13 21:33:00,
2013-09-13 16:38:00,67.0,44.0,30.12,East,94,2.0,3.0,44,0.00,,,0.00,Meteo,2013-09-13 21:38:00,
2013-09-13 16:43:00,67.0,44.0,30.12,ESE,119,0.0,1.0,43,0.00,,,0.00,Meteo,2013-09-13 21:43:00,
2013-09-13 16:49:00,67.0,44.0,30.11,ENE,70,0.0,2.0,43,0.00,,,0.00,Meteo,2013-09-13 21:49:00,
2013-09-13 16:54:00,68.0,45.0,30.12,East,94,1.0,4.0,43,0.00,,,0.00,Meteo,2013-09-13 21:54:00,
2013-09-13 16:59:00,67.0,43.0,30.12,WSW,241,0.0,1.0,42,0.00,,,0.00,Meteo,2013-09-13 21:59:00,
2013-09-13 17:04:00,67.0,44.0,30.11,ENE,68,2.0,4.0,44,0.00,,,0.00,Meteo,2013-09-13 22:04:00,
2013-09-13 17:09:00,66.0,44.0,30.11,East,79,1.0,2.0,45,0.00,,,0.00,Meteo,2013-09-13 22:09:00,
2013-09-13 17:14:00,67.0,45.0,30.11,SSE,161,0.0,1.0,45,0.00,,,0.00,Meteo,2013-09-13 22:14:00,
2013-09-13 17:19:00,67.0,46.0,30.11,ENE,69,2.0,3.0,46,0.00,,,0.00,Meteo,2013-09-13 22:19:00,
2013-09-13 17:24:00,67.0,45.0,30.11,East,91,2.0,3.0,45,0.00,,,0.00,Meteo,2013-09-13 22:24:00,
2013-09-13 17:29:00,68.0,46.0,30.11,North,0,0.0,0.0,45,0.00,,,0.00,Meteo,2013-09-13 22:29:00,
2013-09-13 17:34:00,68.0,46.0,30.11,SSW,206,1.0,2.0,45,0.00,,,0.00,Meteo,2013-09-13 22:34:00,
2013-09-13 17:39:00,68.0,46.0,30.11,South,177,1.0,2.0,45,0.00,,,0.00,Meteo,2013-09-13 22:39:00,
2013-09-13 17:44:00,67.0,46.0,30.11,WNW,283,1.0,3.0,46,0.00,,,0.00,Meteo,2013-09-13 22:44:00,
2013-09-13 17:49:00,66.0,45.0,30.11,North,0,0.0,0.0,47,0.00,,,0.00,Meteo,2013-09-13 22:49:00,
2013-09-13 17:54:00,66.0,45.0,30.10,NNW,335,0.0,1.0,47,0.00,,,0.00,Meteo,2013-09-13 22:54:00,
2013-09-13 17:59:00,65.0,45.0,30.10,North,0,0.0,0.0,48,0.00,,,0.00,Meteo,2013-09-13 22:59:00,
2013-09-13 18:04:00,65.0,46.0,30.10,North,0,0.0,0.0,50,0.00,,,0.00,Meteo,2013-09-13 23:04:00,
2013-09-13 18:09:00,64.0,47.0,30.10,SSE,159,1.0,2.0,53,0.00,,,0.00,Meteo,2013-09-13 23:09:00,
2013-09-13 18:14:00,64.0,47.0,30.10,SE,129,0.0,1.0,53,0.00,,,0.00,Meteo,2013-09-13 23:14:00,
2013-09-13 18:19:00,64.0,47.0,30.10,SE,135,0.0,1.0,53,0.00,,,0.00,Meteo,2013-09-13 23:19:00,
2013-09-13 18:24:00,63.0,46.0,30.10,SE,140,0.0,1.0,54,0.00,,,0.00,Meteo,2013-09-13 23:24:00,
2013-09-13 18:29:00,63.0,47.0,30.09,North,0,0.0,0.0,56,0.00,,,0.00,Meteo,2013-09-13 23:29:00,
2013-09-13 18:34:00,63.0,48.0,30.09,North,0,0.0,0.0,58,0.00,,,0.00,Meteo,2013-09-13 23:34:00,
2013-09-13 18:39:00,62.0,47.0,30.09,North,0,0.0,0.0,58,0.00,,,0.00,Meteo,2013-09-13 23:39:00,
2013-09-13 18:44:00,62.0,48.0,30.09,SE,139,0.0,2.0,59,0.00,,,0.00,Meteo,2013-09-13 23:44:00,
2013-09-13 18:49:00,62.0,48.0,30.09,SE,135,0.0,1.0,60,0.00,,,0.00,Meteo,2013-09-13 23:49:00,
2013-09-13 18:54:00,61.0,47.0,30.09,North,0,0.0,0.0,61,0.00,,,0.00,Meteo,2013-09-13 23:54:00,
2013-09-13 18:59:00,61.0,48.0,30.08,North,0,0.0,0.0,62,0.00,,,0.00,Meteo,2013-09-13 23:59:00,
2013-09-13 19:04:00,61.0,48.0,30.08,SE,129,0.0,1.0,62,0.00,,,0.00,Meteo,2013-09-14 00:04:00,
2013-09-13 19:09:00,60.0,48.0,30.08,North,0,0.0,0.0,64,0.00,,,0.00,Meteo,2013-09-14 00:09:00,
2013-09-13 19:14:00,60.0,48.0,30.08,North,0,0.0,0.0,65,0.00,,,0.00,Meteo,2013-09-14 00:14:00,
2013-09-13 19:19:00,59.0,48.0,30.08,North,0,0.0,0.0,67,0.00,,,0.00,Meteo,2013-09-14 00:19:00,
2013-09-13 19:24:00,59.0,48.0,30.08,North,0,0.0,0.0,68,0.00,,,0.00,Meteo,2013-09-14 00:24:00,
2013-09-13 19:29:00,59.0,49.0,30.08,North,0,0.0,0.0,69,0.00,,,0.00,Meteo,2013-09-14 00:29:00,
2013-09-13 19:34:00,58.0,48.0,30.08,SE,129,0.0,1.0,70,0.00,,,0.00,Meteo,2013-09-14 00:34:00,
2013-09-13 19:39:00,58.0,49.0,30.08,North,0,0.0,0.0,72,0.00,,,0.00,Meteo,2013-09-14 00:39:00,
2013-09-13 19:44:00,57.0,48.0,30.08,North,0,0.0,0.0,73,0.00,,,0.00,Meteo,2013-09-14 00:44:00,
2013-09-13 19:49:00,57.0,49.0,30.08,North,0,0.0,0.0,74,0.00,,,0.00,Meteo,2013-09-14 00:49:00,
2013-09-13 19:54:00,56.0,48.0,30.07,North,0,0.0,0.0,75,0.00,,,0.00,Meteo,2013-09-14 00:54:00,
2013-09-13 19:59:00,56.0,49.0,30.07,North,0,0.0,0.0,76,0.00,,,0.00,Meteo,2013-09-14 00:59:00,
2013-09-13 20:04:00,55.0,48.0,30.08,North,0,0.0,0.0,77,0.00,,,0.00,Meteo,2013-09-14 01:04:00,
2013-09-13 20:10:00,55.0,48.0,30.07,North,0,0.0,0.0,78,0.00,,,0.00,Meteo,2013-09-14 01:10:00,
2013-09-13 20:15:00,54.0,47.0,30.07,North,0,0.0,0.0,78,0.00,,,0.00,Meteo,2013-09-14 01:15:00,
2013-09-13 20:20:00,54.0,48.0,30.07,North,0,0.0,0.0,79,0.00,,,0.00,Meteo,2013-09-14 01:20:00,
2013-09-13 20:25:00,54.0,47.0,30.07,North,0,0.0,0.0,78,0.00,,,0.00,Meteo,2013-09-14 01:25:00,
2013-09-13 20:30:00,53.0,47.0,30.07,North,0,0.0,0.0,79,0.00,,,0.00,Meteo,2013-09-14 01:30:00,
2013-09-13 20:35:00,53.0,47.0,30.07,North,0,0.0,0.0,79,0.00,,,0.00,Meteo,2013-09-14 01:35:00,
2013-09-13 20:40:00,53.0,47.0,30.07,North,0,0.0,0.0,80,0.00,,,0.00,Meteo,2013-09-14 01:40:00,
2013-09-13 20:45:00,53.0,47.0,30.07,North,0,0.0,0.0,80,0.00,,,0.00,Meteo,2013-09-14 01:45:00,
2013-09-13 20:50:00,53.0,47.0,30.07,North,0,0.0,0.0,80,0.00,,,0.00,Meteo,2013-09-14 01:50:00,
2013-09-13 20:55:00,53.0,47.0,30.07,North,0,0.0,0.0,80,0.00,,,0.00,Meteo,2013-09-14 01:55:00,
2013-09-13 21:00:00,52.0,46.0,30.06,North,0,0.0,0.0,81,0.00,,,0.00,Meteo,2013-09-14 02:00:00,
2013-09-13 21:05:00,52.0,46.0,30.06,North,0,0.0,0.0,81,0.00,,,0.00,Meteo,2013-09-14 02:05:00,
2013-09-13 21:10:00,52.0,46.0,30.06,North,0,0.0,0.0,81,0.00,,,0.00,Meteo,2013-09-14 02:10:00,
2013-09-13 21:15:00,52.0,47.0,30.06,North,0,0.0,0.0,82,0.00,,,0.00,Meteo,2013-09-14 02:15:00,
2013-09-13 21:20:00,52.0,47.0,30.06,North,0,0.0,0.0,82,0.00,,,0.00,Meteo,2013-09-14 02:20:00,
2013-09-13 21:25:00,52.0,47.0,30.06,North,0,0.0,0.0,82,0.00,,,0.00,Meteo,2013-09-14 02:25:00,
2013-09-13 21:30:00,52.0,47.0,30.05,North,0,0.0,0.0,82,0.00,,,0.00,Meteo,2013-09-14 02:30:00,
2013-09-13 21:35:00,52.0,47.0,30.05,North,0,0.0,0.0,82,0.00,,,0.00,Meteo,2013-09-14 02:35:00,
2013-09-13 21:40:00,52.0,47.0,30.05,North,0,0.0,0.0,82,0.00,,,0.00,Meteo,2013-09-14 02:40:00,
2013-09-13 21:46:00,52.0,47.0,30.05,North,0,0.0,0.0,82,0.00,,,0.00,Meteo,2013-09-14 02:46:00,
2013-09-13 21:51:00,51.0,46.0,30.05,North,0,0.0,0.0,82,0.00,,,0.00,Meteo,2013-09-14 02:51:00,
2013-09-13 21:56:00,51.0,46.0,30.05,North,0,0.0,0.0,83,0.00,,,0.00,Meteo,2013-09-14 02:56:00,
2013-09-13 22:01:00,51.0,46.0,30.05,North,0,0.0,0.0,82,0.00,,,0.00,Meteo,2013-09-14 03:01:00,
2013-09-13 22:06:00,51.0,46.0,30.05,North,0,0.0,0.0,82,0.00,,,0.00,Meteo,2013-09-14 03:06:00,
2013-09-13 22:12:00,51.0,46.0,30.05,North,0,0.0,0.0,83,0.00,,,0.00,Meteo,2013-09-14 03:12:00,
2013-09-13 22:17:00,51.0,46.0,30.05,North,0,0.0,0.0,82,0.00,,,0.00,Meteo,2013-09-14 03:17:00,
2013-09-13 22:22:00,51.0,46.0,30.05,North,0,0.0,0.0,83,0.00,,,0.00,Meteo,2013-09-14 03:22:00,
2013-09-13 22:27:00,51.0,46.0,30.05,North,0,0.0,0.0,83,0.00,,,0.00,Meteo,2013-09-14 03:27:00,
2013-09-13 22:32:00,51.0,46.0,30.05,North,0,0.0,0.0,83,0.00,,,0.00,Meteo,2013-09-14 03:32:00,
2013-09-13 22:37:00,51.0,46.0,30.05,North,0,0.0,0.0,84,0.00,,,0.00,Meteo,2013-09-14 03:37:00,
2013-09-13 22:42:00,51.0,46.0,30.05,North,0,0.0,0.0,84,0.00,,,0.00,Meteo,2013-09-14 03:42:00,
2013-09-13 22:47:00,50.0,45.0,30.04,North,0,0.0,0.0,84,0.00,,,0.00,Meteo,2013-09-14 03:47:00,
2013-09-13 22:52:00,50.0,45.0,30.04,North,0,0.0,0.0,84,0.00,,,0.00,Meteo,2013-09-14 03:52:00,
2013-09-13 22:57:00,50.0,45.0,30.04,North,0,0.0,0.0,84,0.00,,,0.00,Meteo,2013-09-14 03:57:00,
2013-09-13 23:01:00,50.0,45.0,30.05,North,0,0.0,0.0,84,0.00,,,0.00,Meteo,2013-09-14 04:01:00,
2013-09-13 23:03:00,50.0,45.0,30.04,North,0,0.0,0.0,84,0.00,,,0.00,Meteo,2013-09-14 04:03:00,
2013-09-13 23:05:00,50.0,45.0,30.04,North,0,0.0,0.0,84,0.00,,,0.00,Meteo,2013-09-14 04:05:00,
2013-09-13 23:09:00,50.0,45.0,30.04,North,0,0.0,0.0,84,0.00,,,0.00,Meteo,2013-09-14 04:09:00,
2013-09-13 23:11:00,50.0,45.0,30.04,North,0,0.0,0.0,84,0.00,,,0.00,Meteo,2013-09-14 04:11:00,
2013-09-13 23:16:00,50.0,45.0,30.04,North,0,0.0,0.0,84,0.00,,,0.00,Meteo,2013-09-14 04:16:00,
2013-09-13 23:21:00,50.0,45.0,30.04,North,0,0.0,0.0,84,0.00,,,0.00,Meteo,2013-09-14 04:21:00,
2013-09-13 23:26:00,50.0,45.0,30.04,North,0,0.0,0.0,84,0.00,,,0.00,Meteo,2013-09-14 04:26:00,
2013-09-13 23:31:00,50.0,45.0,30.04,North,0,0.0,0.0,84,0.00,,,0.00,Meteo,2013-09-14 04:31:00,
2013-09-13 23:36:00,50.0,45.0,30.04,North,0,0.0,0.0,84,0.00,,,0.00,Meteo,2013-09-14 04:36:00,
2013-09-13 23:41:00,49.0,44.0,30.04,North,0,0.0,0.0,84,0.00,,,0.00,Meteo,2013-09-14 04:41:00,
2013-09-13 23:46:00,49.0,45.0,30.04,North,0,0.0,0.0,85,0.00,,,0.00,Meteo,2013-09-14 04:46:00,
2013-09-13 23:51:00,49.0,45.0,30.04,North,0,0.0,0.0,85,0.00,,,0.00,Meteo,2013-09-14 04:51:00,
2013-09-13 23:56:00,49.0,45.0,30.04,North,0,0.0,0.0,85,0.00,,,0.00,Meteo,2013-09-14 04:56:00,